Hourly Weather Roundup
Issued by NWS Central Illinois

Home | Current Version | Previous Version | Text Only | Print | Product List | Glossary On
Versions: 1 2 3 4 5 6 7 8 9 10 11 12 13 14 15 16 17 18 19 20 21 22 23 24 25 26 27 28 29 30 31 32 33 34 35 36 37 38 39 40 41 42 43 44 45 46 47 48 49 50
561
NZUS43 KILX 262110
HWRILX

AREA WEATHER ROUNDUP
NATIONAL WEATHER SERVICE, LINCOLN IL
400 PM CDT SUN MAR 26 2017


CITY           SKY/WX    TMP DP  RH WIND       PRES   REMARKS
BLOOMINGTON    LGT RAIN  52  50  93 SW14      29.86S FOG
CHAMPAIGN      CLOUDY    60  48  64 SW21      29.86R
DECATUR        CLOUDY    57  49  74 W14G21    29.87S
EFFINGHAM      CLOUDY    59  51  75 SW13      29.91R
FLORA          CLOUDY    62  50  65 W10       29.91R
GALESBURG      CLOUDY    49  47  93 W12       29.85R
JACKSONVILLE   CLOUDY    55  49  81 SW12      29.88S
LACON          CLOUDY    54  50  87 W9        29.83S
LAWRENCEVILLE  LGT RAIN  62  50  64 SW15      29.90R
LITCHFIELD     CLOUDY    57  50  78 SW12      29.89S
$$


CITY           SKY/WX    TMP DP  RH WIND       PRES   REMARKS
LINCOLN        CLOUDY    55  51  85 W3        29.87R
MACOMB         CLOUDY    50  47  90 W12       29.89R
MATTOON        CLOUDY    60  49  66 SW12      29.87R
MT CARMEL AP   CLOUDY    62  48  61 W17G28    29.90S
OLNEY-NOBLE AP CLOUDY    61  50  67 SW8       29.91S
PARIS          CLOUDY    58  51  77 SW16      29.88R
PEORIA         CLOUDY    52  49  89 SW12      29.85R
PONTIAC        CLOUDY    55  54  94 SW9       29.85S
RANTOUL        CLOUDY    61  50  66 W12G17    29.85S
SPRINGFIELD    CLOUDY    57  51  80 W9        29.87S
TAYLORVILLE    NOT AVBL
$$

...REGIONAL REPORTS...


CITY           SKY/WX    TMP DP  RH WIND       PRES   REMARKS
CHICAGO O`HARE CLOUDY    62  50  64 SW13      29.79F
KANKAKEE       CLOUDY    58  51  76 SW12      29.84S
MOLINE         CLOUDY    54  51  90 W7        29.82S FOG
MOUNT STERLING CLOUDY    50  46  87 SW12G17   29.88S
MOUNT VERNON   CLOUDY    60  50  69 SW13      29.92R
PITTSFIELD     CLOUDY    54  48  82 W10       29.91R
QUINCY         CLOUDY    51  46  83 W10       29.89R
ROCKFORD       CLOUDY    57  51  80 SW12      29.82S
$$


CITY           SKY/WX    TMP DP  RH WIND       PRES   REMARKS
BURLINGTON     CLOUDY    50  47  89 W8        29.85S
CEDAR RAPIDS   CLOUDY    48  47  96 W10       29.83S
DES MOINES     CLOUDY    48  44  86 W10       29.89S
KIRKSVILLE     CLOUDY    49  45  86 W8        29.90S
OTTUMWA        CLOUDY    48  46  93 W12       29.88R
ST LOUIS       CLOUDY    62  49  62 W13       29.90S
$$


CITY           SKY/WX    TMP DP  RH WIND       PRES   REMARKS
TERRE HAUTE    CLOUDY    61  48  62 SW17G24   29.87S
EVANSVILLE     PTSUNNY   65  50  58 SW21G28   29.91R
INDIANAPOLIS   CLOUDY    59  56  89 S8        29.86F
LAFAYETTE      CLOUDY    62  51  67 SW10      29.83F
MADISON        LGT RAIN  46  43  89 N6        29.82S
MILWAUKEE      FOG       45  42  89 NE6       29.82S VSB 1
$$






USA.gov is the U.S. government's official web portal to all federal, state and local government web resources and services.